Time,TemperatureF,DewpointF,PressureIn,WindDirection,WindDirectionDegrees,WindSpeedMPH,WindSpeedGustMPH,Humidity,HourlyPrecipIn,Conditions,Clouds,dailyrainin,SoftwareType,DateUTC
2013-02-18 00:02:00,34.0,23.0,30.26,East,83,1.0,-999.0,64,-99.99,,,0.00,,2013-02-18 06:02:00,
2013-02-18 00:11:00,34.0,23.0,30.26,East,83,1.0,-999.0,64,-99.99,,,0.00,,2013-02-18 06:11:00,
2013-02-18 00:21:00,34.0,24.0,30.26,East,84,2.0,-999.0,66,-99.99,,,0.00,,2013-02-18 06:21:00,
2013-02-18 00:32:00,34.0,24.0,30.25,East,83,2.0,-999.0,66,-99.99,,,0.00,,2013-02-18 06:32:00,
2013-02-18 00:41:00,35.0,23.0,30.25,East,83,2.0,-999.0,62,-99.99,,,0.00,,2013-02-18 06:41:00,
2013-02-18 00:52:00,35.0,23.0,30.25,East,83,2.0,-999.0,62,-99.99,,,0.00,,2013-02-18 06:52:00,
2013-02-18 01:01:00,35.0,23.0,30.25,East,83,2.0,-999.0,62,-99.99,,,0.00,,2013-02-18 07:01:00,
2013-02-18 01:11:00,35.0,23.0,30.25,East,83,2.0,-999.0,62,-99.99,,,0.00,,2013-02-18 07:11:00,
2013-02-18 01:21:00,35.0,23.0,30.25,East,83,2.0,-999.0,60,-99.99,,,0.00,,2013-02-18 07:21:00,
2013-02-18 01:32:00,35.0,23.0,30.25,East,83,2.0,-999.0,60,-99.99,,,0.00,,2013-02-18 07:32:00,
2013-02-18 01:42:00,35.0,23.0,30.25,East,83,2.0,-999.0,60,-99.99,,,0.00,,2013-02-18 07:42:00,
2013-02-18 01:51:00,35.0,24.0,30.25,East,90,2.0,-999.0,63,-99.99,,,0.00,,2013-02-18 07:51:00,
2013-02-18 02:01:00,34.0,23.0,30.25,East,90,1.0,-999.0,63,-99.99,,,0.00,,2013-02-18 08:01:00,
2013-02-18 02:11:00,34.0,23.0,30.25,East,90,1.0,-999.0,63,-99.99,,,0.00,,2013-02-18 08:11:00,
2013-02-18 02:21:00,34.0,23.0,30.24,East,90,1.0,-999.0,64,-99.99,,,0.00,,2013-02-18 08:21:00,
2013-02-18 02:32:00,34.0,23.0,30.25,ESE,114,2.0,-999.0,63,-99.99,,,0.00,,2013-02-18 08:32:00,
2013-02-18 02:42:00,34.0,23.0,30.25,ESE,114,2.0,-999.0,63,-99.99,,,0.00,,2013-02-18 08:42:00,
2013-02-18 02:52:00,36.0,23.0,30.25,SSE,161,1.0,-999.0,59,-99.99,,,0.00,,2013-02-18 08:52:00,
2013-02-18 03:02:00,36.0,23.0,30.25,SSE,147,1.0,-999.0,59,-99.99,,,0.00,,2013-02-18 09:02:00,
2013-02-18 03:11:00,36.0,23.0,30.25,SSE,147,1.0,-999.0,59,-99.99,,,0.00,,2013-02-18 09:11:00,
2013-02-18 03:22:00,37.0,23.0,30.25,SE,139,1.0,-999.0,56,-99.99,,,0.00,,2013-02-18 09:22:00,
2013-02-18 03:31:00,38.0,23.0,30.25,SE,128,1.0,-999.0,54,-99.99,,,0.00,,2013-02-18 09:31:00,
2013-02-18 03:42:00,38.0,23.0,30.25,SE,128,1.0,-999.0,54,-99.99,,,0.00,,2013-02-18 09:42:00,
2013-02-18 03:51:00,39.0,23.0,30.25,South,176,1.0,-999.0,52,-99.99,,,0.00,,2013-02-18 09:51:00,
2013-02-18 04:01:00,39.0,23.0,30.25,SSE,154,1.0,-999.0,53,-99.99,,,0.00,,2013-02-18 10:01:00,
2013-02-18 04:11:00,39.0,23.0,30.25,SSE,154,1.0,-999.0,53,-99.99,,,0.00,,2013-02-18 10:11:00,
2013-02-18 04:21:00,39.0,24.0,30.25,ESE,112,1.0,-999.0,54,-99.99,,,0.00,,2013-02-18 10:21:00,
2013-02-18 04:31:00,39.0,24.0,30.26,SSE,156,1.0,-999.0,54,-99.99,,,0.00,,2013-02-18 10:31:00,
2013-02-18 04:42:00,39.0,24.0,30.26,SSE,156,1.0,-999.0,54,-99.99,,,0.00,,2013-02-18 10:42:00,
2013-02-18 04:53:00,39.0,24.0,30.26,South,179,0.0,-999.0,55,-99.99,,,0.00,,2013-02-18 10:53:00,
2013-02-18 05:01:00,38.0,24.0,30.27,South,191,1.0,-999.0,56,-99.99,,,0.00,,2013-02-18 11:01:00,
2013-02-18 05:11:00,38.0,24.0,30.27,South,191,1.0,-999.0,56,-99.99,,,0.00,,2013-02-18 11:11:00,
2013-02-18 05:22:00,38.0,24.0,30.27,SSE,159,1.0,-999.0,57,-99.99,,,0.00,,2013-02-18 11:22:00,
2013-02-18 05:32:00,38.0,25.0,30.27,SSE,166,1.0,-999.0,58,-99.99,,,0.00,,2013-02-18 11:32:00,
2013-02-18 05:42:00,38.0,25.0,30.27,SSE,166,1.0,-999.0,58,-99.99,,,0.00,,2013-02-18 11:42:00,
2013-02-18 05:53:00,38.0,25.0,30.27,SSE,154,1.0,-999.0,58,-99.99,,,0.00,,2013-02-18 11:53:00,
2013-02-18 06:02:00,38.0,25.0,30.27,SSE,151,1.0,-999.0,60,-99.99,,,0.00,,2013-02-18 12:02:00,
2013-02-18 06:11:00,38.0,25.0,30.27,SSE,151,1.0,-999.0,60,-99.99,,,0.00,,2013-02-18 12:11:00,
2013-02-18 06:22:00,37.0,25.0,30.27,SSE,149,1.0,-999.0,61,-99.99,,,0.00,,2013-02-18 12:22:00,
2013-02-18 06:32:00,37.0,25.0,30.27,SSE,149,1.0,-999.0,62,-99.99,,,0.00,,2013-02-18 12:32:00,
2013-02-18 06:42:00,37.0,25.0,30.27,SSE,149,1.0,-999.0,62,-99.99,,,0.00,,2013-02-18 12:42:00,
2013-02-18 06:53:00,37.0,25.0,30.27,ESE,109,3.0,-999.0,62,-99.99,,,0.00,,2013-02-18 12:53:00,
2013-02-18 07:02:00,36.0,25.0,30.28,ESE,109,1.0,-999.0,64,-99.99,,,0.00,,2013-02-18 13:02:00,
2013-02-18 07:12:00,36.0,25.0,30.28,ESE,109,1.0,-999.0,64,-99.99,,,0.00,,2013-02-18 13:12:00,
2013-02-18 07:22:00,36.0,26.0,30.28,ESE,109,2.0,-999.0,66,-99.99,,,0.00,,2013-02-18 13:22:00,
2013-02-18 07:32:00,36.0,26.0,30.28,ESE,108,3.0,-999.0,67,-99.99,,,0.00,,2013-02-18 13:32:00,
2013-02-18 07:42:00,36.0,26.0,30.28,ESE,108,3.0,-999.0,67,-99.99,,,0.00,,2013-02-18 13:42:00,
2013-02-18 07:52:00,37.0,27.0,30.29,East,90,4.0,-999.0,67,-99.99,,,0.00,,2013-02-18 13:52:00,
2013-02-18 08:02:00,39.0,29.0,30.29,East,85,4.0,-999.0,66,-99.99,,,0.00,,2013-02-18 14:02:00,
2013-02-18 08:11:00,39.0,29.0,30.29,East,85,4.0,-999.0,66,-99.99,,,0.00,,2013-02-18 14:11:00,
2013-02-18 08:22:00,39.0,29.0,30.29,East,85,4.0,-999.0,66,-99.99,,,0.00,,2013-02-18 14:22:00,
2013-02-18 08:32:00,41.0,30.0,30.30,East,96,1.0,-999.0,64,-99.99,,,0.00,,2013-02-18 14:32:00,
2013-02-18 08:42:00,41.0,30.0,30.30,East,96,1.0,-999.0,64,-99.99,,,0.00,,2013-02-18 14:42:00,
2013-02-18 08:53:00,43.0,31.0,30.31,SE,124,1.0,-999.0,63,-99.99,,,0.00,,2013-02-18 14:53:00,
2013-02-18 09:02:00,47.0,35.0,30.30,SW,217,2.0,-999.0,63,-99.99,,,0.00,,2013-02-18 15:02:00,
2013-02-18 09:11:00,47.0,35.0,30.30,SW,217,2.0,-999.0,63,-99.99,,,0.00,,2013-02-18 15:11:00,
2013-02-18 09:22:00,48.0,35.0,30.30,SW,226,3.0,-999.0,61,-99.99,,,0.00,,2013-02-18 15:22:00,
2013-02-18 09:32:00,50.0,36.0,30.29,South,183,3.0,-999.0,58,-99.99,,,0.00,,2013-02-18 15:32:00,
2013-02-18 09:42:00,50.0,36.0,30.29,South,183,3.0,-999.0,58,-99.99,,,0.00,,2013-02-18 15:42:00,
2013-02-18 09:52:00,51.0,37.0,30.28,WSW,238,4.0,-999.0,58,-99.99,,,0.00,,2013-02-18 15:52:00,
2013-02-18 10:02:00,52.0,37.0,30.29,SW,231,4.0,-999.0,57,-99.99,,,0.00,,2013-02-18 16:02:00,
2013-02-18 10:12:00,52.0,37.0,30.29,SW,231,4.0,-999.0,57,-99.99,,,0.00,,2013-02-18 16:12:00,
2013-02-18 10:22:00,52.0,36.0,30.28,SW,218,6.0,-999.0,55,-99.99,,,0.00,,2013-02-18 16:22:00,
2013-02-18 10:32:00,54.0,38.0,30.27,SSW,196,3.0,-999.0,54,-99.99,,,0.00,,2013-02-18 16:32:00,
2013-02-18 10:42:00,54.0,38.0,30.27,SSW,196,3.0,-999.0,54,-99.99,,,0.00,,2013-02-18 16:42:00,
2013-02-18 10:52:00,55.0,38.0,30.26,SSE,161,6.0,-999.0,52,-99.99,,,0.00,,2013-02-18 16:52:00,
2013-02-18 11:03:00,56.0,38.0,30.25,WSW,251,4.0,-999.0,51,-99.99,,,0.00,,2013-02-18 17:03:00,
2013-02-18 11:12:00,56.0,38.0,30.25,WSW,251,4.0,-999.0,51,-99.99,,,0.00,,2013-02-18 17:12:00,
2013-02-18 11:22:00,57.0,39.0,30.24,SE,146,6.0,-999.0,51,-99.99,,,0.00,,2013-02-18 17:22:00,
2013-02-18 11:32:00,57.0,38.0,30.23,ESE,122,4.0,-999.0,49,-99.99,,,0.00,,2013-02-18 17:32:00,
2013-02-18 11:42:00,57.0,38.0,30.23,ESE,122,4.0,-999.0,49,-99.99,,,0.00,,2013-02-18 17:42:00,
2013-02-18 11:53:00,58.0,38.0,30.21,South,175,6.0,-999.0,47,-99.99,,,0.00,,2013-02-18 17:53:00,
2013-02-18 12:02:00,58.0,37.0,30.20,SSE,168,8.0,-999.0,46,-99.99,,,0.00,,2013-02-18 18:02:00,
2013-02-18 12:12:00,58.0,37.0,30.20,SSE,168,8.0,-999.0,46,-99.99,,,0.00,,2013-02-18 18:12:00,
2013-02-18 12:22:00,59.0,39.0,30.19,SW,216,6.0,-999.0,47,-99.99,,,0.00,,2013-02-18 18:22:00,
2013-02-18 12:32:00,60.0,38.0,30.18,SSE,151,7.0,-999.0,44,-99.99,,,0.00,,2013-02-18 18:32:00,
2013-02-18 12:42:00,60.0,38.0,30.18,SSE,151,7.0,-999.0,44,-99.99,,,0.00,,2013-02-18 18:42:00,
2013-02-18 12:52:00,60.0,38.0,30.16,ESE,108,6.0,-999.0,44,-99.99,,,0.00,,2013-02-18 18:52:00,
2013-02-18 13:03:00,60.0,38.0,30.15,SE,144,6.0,-999.0,44,-99.99,,,0.00,,2013-02-18 19:03:00,
2013-02-18 13:12:00,60.0,38.0,30.15,SE,144,6.0,-999.0,44,-99.99,,,0.00,,2013-02-18 19:12:00,
2013-02-18 13:22:00,61.0,38.0,30.14,South,189,5.0,-999.0,43,-99.99,,,0.00,,2013-02-18 19:22:00,
2013-02-18 13:33:00,62.0,39.0,30.12,SSE,154,5.0,-999.0,43,-99.99,,,0.00,,2013-02-18 19:33:00,
2013-02-18 13:42:00,62.0,39.0,30.12,SSE,154,5.0,-999.0,43,-99.99,,,0.00,,2013-02-18 19:42:00,
2013-02-18 13:53:00,62.0,38.0,30.11,WSW,243,6.0,-999.0,41,-99.99,,,0.00,,2013-02-18 19:53:00,
2013-02-18 14:02:00,62.0,38.0,30.11,SW,215,6.0,-999.0,41,-99.99,,,0.00,,2013-02-18 20:02:00,
2013-02-18 14:12:00,62.0,38.0,30.11,SW,215,6.0,-999.0,41,-99.99,,,0.00,,2013-02-18 20:12:00,
2013-02-18 14:23:00,61.0,38.0,30.10,SW,214,5.0,-999.0,43,-99.99,,,0.00,,2013-02-18 20:23:00,
2013-02-18 14:33:00,61.0,38.0,30.09,SSW,203,5.0,-999.0,42,-99.99,,,0.00,,2013-02-18 20:33:00,
2013-02-18 14:42:00,61.0,38.0,30.09,SSW,203,5.0,-999.0,42,-99.99,,,0.00,,2013-02-18 20:42:00,
2013-02-18 14:52:00,61.0,38.0,30.09,ESE,102,5.0,-999.0,42,-99.99,,,0.00,,2013-02-18 20:52:00,
2013-02-18 15:03:00,60.0,36.0,30.08,SSE,166,5.0,-999.0,41,-99.99,,,0.00,,2013-02-18 21:03:00,
2013-02-18 15:12:00,60.0,36.0,30.08,SSE,166,5.0,-999.0,41,-99.99,,,0.00,,2013-02-18 21:12:00,
2013-02-18 15:22:00,60.0,36.0,30.08,South,174,5.0,-999.0,41,-99.99,,,0.00,,2013-02-18 21:22:00,
2013-02-18 15:32:00,61.0,36.0,30.07,SE,129,4.0,-999.0,39,-99.99,,,0.00,,2013-02-18 21:32:00,
2013-02-18 15:42:00,61.0,36.0,30.07,SE,129,4.0,-999.0,39,-99.99,,,0.00,,2013-02-18 21:42:00,
2013-02-18 15:52:00,61.0,36.0,30.05,SSE,154,4.0,-999.0,40,-99.99,,,0.00,,2013-02-18 21:52:00,
2013-02-18 16:02:00,61.0,36.0,30.05,SSE,154,4.0,-999.0,40,-99.99,,,0.00,,2013-02-18 22:02:00,
2013-02-18 16:12:00,60.0,36.0,30.04,SSE,163,4.0,-999.0,40,-99.99,,,0.00,,2013-02-18 22:12:00,
2013-02-18 16:22:00,60.0,36.0,30.04,SSE,163,4.0,-999.0,40,-99.99,,,0.00,,2013-02-18 22:22:00,
2013-02-18 16:33:00,60.0,37.0,30.03,South,179,5.0,-999.0,42,-99.99,,,0.00,,2013-02-18 22:33:00,
2013-02-18 16:43:00,60.0,37.0,30.03,South,179,5.0,-999.0,42,-99.99,,,0.00,,2013-02-18 22:43:00,
2013-02-18 16:53:00,60.0,37.0,30.03,South,179,5.0,-999.0,42,-99.99,,,0.00,,2013-02-18 22:53:00,
2013-02-18 17:02:00,60.0,37.0,30.03,South,179,5.0,-999.0,42,-99.99,,,0.00,,2013-02-18 23:02:00,
2013-02-18 17:12:00,60.0,37.0,30.03,South,179,5.0,-999.0,42,-99.99,,,0.00,,2013-02-18 23:12:00,
2013-02-18 17:23:00,59.0,36.0,30.01,SSE,164,6.0,-999.0,42,-99.99,,,0.00,,2013-02-18 23:23:00,
2013-02-18 17:34:00,59.0,37.0,30.01,SW,214,6.0,-999.0,43,-99.99,,,0.00,,2013-02-18 23:34:00,
2013-02-18 17:43:00,59.0,37.0,30.01,SW,214,6.0,-999.0,43,-99.99,,,0.00,,2013-02-18 23:43:00,
2013-02-18 17:53:00,58.0,35.0,30.01,SE,143,6.0,-999.0,42,-99.99,,,0.00,,2013-02-18 23:53:00,
2013-02-18 18:02:00,58.0,34.0,30.01,SSW,208,6.0,-999.0,40,-99.99,,,0.00,,2013-02-19 00:02:00,
2013-02-18 18:12:00,58.0,34.0,30.01,SSW,208,6.0,-999.0,40,-99.99,,,0.00,,2013-02-19 00:12:00,
2013-02-18 18:22:00,58.0,34.0,30.01,ESE,110,6.0,-999.0,40,-99.99,,,0.00,,2013-02-19 00:22:00,
2013-02-18 18:34:00,57.0,34.0,30.01,SE,146,6.0,-999.0,41,-99.99,,,0.00,,2013-02-19 00:34:00,
2013-02-18 18:43:00,57.0,34.0,30.01,SE,146,6.0,-999.0,41,-99.99,,,0.00,,2013-02-19 00:43:00,
2013-02-18 18:53:00,57.0,33.0,30.00,East,83,7.0,-999.0,40,-99.99,,,0.00,,2013-02-19 00:53:00,
2013-02-18 19:03:00,57.0,33.0,29.99,SE,141,7.0,-999.0,40,-99.99,,,0.00,,2013-02-19 01:03:00,
2013-02-18 19:13:00,57.0,33.0,29.99,SE,141,7.0,-999.0,40,-99.99,,,0.00,,2013-02-19 01:13:00,
2013-02-18 19:23:00,56.0,32.0,29.99,SE,132,6.0,-999.0,40,-99.99,,,0.00,,2013-02-19 01:23:00,
2013-02-18 19:33:00,56.0,33.0,30.00,SSE,156,6.0,-999.0,42,-99.99,,,0.00,,2013-02-19 01:33:00,
2013-02-18 19:43:00,56.0,33.0,30.00,SSE,156,6.0,-999.0,42,-99.99,,,0.00,,2013-02-19 01:43:00,
2013-02-18 19:53:00,56.0,33.0,29.99,SE,131,5.0,-999.0,42,-99.99,,,0.00,,2013-02-19 01:53:00,
2013-02-18 20:03:00,56.0,33.0,30.00,East,92,5.0,-999.0,41,-99.99,,,0.00,,2013-02-19 02:03:00,
2013-02-18 20:13:00,56.0,33.0,30.00,East,92,5.0,-999.0,41,-99.99,,,0.00,,2013-02-19 02:13:00,
2013-02-18 20:23:00,56.0,33.0,29.98,SW,222,6.0,-999.0,42,-99.99,,,0.00,,2013-02-19 02:23:00,
2013-02-18 20:34:00,56.0,33.0,29.98,SE,139,6.0,-999.0,42,-99.99,,,0.00,,2013-02-19 02:34:00,
2013-02-18 20:42:00,56.0,33.0,29.98,SE,139,6.0,-999.0,42,-99.99,,,0.00,,2013-02-19 02:42:00,
2013-02-18 20:55:00,56.0,34.0,29.96,SSW,202,6.0,-999.0,43,-99.99,,,0.00,,2013-02-19 02:55:00,
2013-02-18 21:06:00,56.0,34.0,29.97,SE,126,6.0,-999.0,43,-99.99,,,0.00,,2013-02-19 03:06:00,
2013-02-18 21:13:00,56.0,34.0,29.97,SE,126,6.0,-999.0,43,-99.99,,,0.00,,2013-02-19 03:13:00,
2013-02-18 21:23:00,56.0,34.0,29.97,South,184,8.0,-999.0,43,-99.99,,,0.00,,2013-02-19 03:23:00,
2013-02-18 21:33:00,56.0,34.0,29.96,SSW,197,7.0,-999.0,43,-99.99,,,0.00,,2013-02-19 03:33:00,
2013-02-18 21:43:00,56.0,34.0,29.96,SSW,197,7.0,-999.0,43,-99.99,,,0.00,,2013-02-19 03:43:00,
2013-02-18 21:53:00,56.0,35.0,29.95,SE,130,7.0,-999.0,45,-99.99,,,0.00,,2013-02-19 03:53:00,
2013-02-18 22:02:00,56.0,35.0,29.95,ESE,106,7.0,-999.0,45,-99.99,,,0.00,,2013-02-19 04:02:00,
2013-02-18 22:14:00,56.0,35.0,29.95,ESE,106,7.0,-999.0,45,-99.99,,,0.00,,2013-02-19 04:14:00,
2013-02-18 22:23:00,56.0,36.0,29.94,SSW,196,7.0,-999.0,46,-99.99,,,0.00,,2013-02-19 04:23:00,
2013-02-18 22:33:00,56.0,36.0,29.94,SSW,196,7.0,-999.0,46,-99.99,,,0.00,,2013-02-19 04:33:00,
2013-02-18 22:43:00,56.0,36.0,29.94,SSW,196,7.0,-999.0,46,-99.99,,,0.00,,2013-02-19 04:43:00,
2013-02-18 22:55:00,52.0,41.0,29.94,South,183,5.0,-999.0,67,-99.99,,,0.01,,2013-02-19 04:55:00,
2013-02-18 23:02:00,50.0,41.0,29.92,South,177,6.0,-999.0,70,-99.99,,,0.03,,2013-02-19 05:02:00,
2013-02-18 23:12:00,50.0,41.0,29.92,South,177,6.0,-999.0,70,-99.99,,,0.03,,2013-02-19 05:12:00,
2013-02-18 23:22:00,50.0,41.0,29.93,NE,39,6.0,-999.0,72,-99.99,,,0.03,,2013-02-19 05:22:00,
2013-02-18 23:32:00,49.0,42.0,29.98,SW,225,5.0,-999.0,78,-99.99,,,0.07,,2013-02-19 05:32:00,
2013-02-18 23:43:00,49.0,42.0,29.98,SW,225,5.0,-999.0,78,-99.99,,,0.07,,2013-02-19 05:43:00,
2013-02-18 23:52:00,48.0,44.0,30.00,South,177,5.0,-999.0,86,-99.99,,,0.14,,2013-02-19 05:52:00,